| time (UTC) | temp F | wind direction | speed MPH | gust MPH | rain 1hr in | rain 24hr in | rain mn in | humidity % | barometer mb |
| 20260502130647 | 36 | 264 | 0.0 | 0.0 | 0.00 | 0.00 | 0.00 | 92 | 1018.1 |
| 20260502130145 | 36 | 264 | 0.0 | 0.0 | 0.00 | 0.00 | 0.00 | 92 | 1018.1 |
| 20260502123631 | 36 | 265 | 1.0 | 3.0 | 0.00 | 0.00 | 0.00 | 93 | 1018.1 |
| 20260502123127 | 35 | 337 | 0.0 | 4.0 | 0.00 | 0.00 | 0.00 | 93 | 1017.9 |
| 20260502122624 | 35 | 317 | 1.0 | 3.0 | 0.00 | 0.00 | 0.00 | 93 | 1017.8 |
| 20260502122121 | 35 | 284 | 0.0 | 3.0 | 0.00 | 0.00 | 0.00 | 93 | 1017.9 |
| 20260502121619 | 35 | 312 | 0.0 | 1.0 | 0.00 | 0.00 | 0.00 | 93 | 1018.1 |
| 20260502121116 | 35 | 278 | 2.0 | 2.0 | 0.00 | 0.00 | 0.00 | 92 | 1017.9 |
| 20260502120612 | 35 | 1 | 0.0 | 1.0 | 0.00 | 0.00 | 0.00 | 92 | 1017.8 |
| 20260502120109 | 35 | 181 | 2.0 | 3.0 | 0.00 | 0.00 | 0.00 | 91 | 1018.0 |
| 20260502115607 | 35 | 14 | 1.0 | 2.0 | 0.00 | 0.00 | 0.00 | 91 | 1018.0 |
| 20260502115102 | 35 | 294 | 0.0 | 1.0 | 0.00 | 0.00 | 0.00 | 91 | 1017.9 |
| 20260502114559 | 34 | 295 | 2.0 | 2.0 | 0.00 | 0.00 | 0.00 | 90 | 1017.9 |
| 20260502114056 | 34 | 16 | 0.0 | 1.0 | 0.00 | 0.00 | 0.00 | 90 | 1018.0 |
| 20260502113554 | 34 | 271 | 1.0 | 1.0 | 0.00 | 0.00 | 0.00 | 91 | 1017.9 |
| 20260502113052 | 34 | 309 | 1.0 | 3.0 | 0.00 | 0.00 | 0.00 | 91 | 1017.9 |
| 20260502112549 | 33 | 284 | 0.0 | 1.0 | 0.00 | 0.00 | 0.00 | 92 | 1017.8 |
| 20260502112047 | 33 | 25 | 0.0 | 2.0 | 0.00 | 0.00 | 0.00 | 92 | 1017.7 |
| 20260502111544 | 33 | 57 | 0.0 | 1.0 | 0.00 | 0.00 | 0.00 | 93 | 1017.7 |
| 20260502111041 | 32 | 250 | 0.0 | 0.0 | 0.00 | 0.00 | 0.00 | 93 | 1017.8 |
| 20260502110539 | 32 | 300 | 0.0 | 1.0 | 0.00 | 0.00 | 0.00 | 93 | 1017.4 |
| 20260502110036 | 32 | 5 | 0.0 | 0.0 | 0.00 | 0.00 | 0.00 | 93 | 1017.3 |
| 20260502105533 | 32 | 5 | 0.0 | 0.0 | 0.00 | 0.00 | 0.00 | 93 | 1017.4 |
| 20260502105031 | 32 | 5 | 0.0 | 0.0 | 0.00 | 0.00 | 0.00 | 93 | 1017.3 |
| 20260502104528 | 32 | 5 | 0.0 | 0.0 | 0.00 | 0.00 | 0.00 | 93 | 1017.4 |
| 20260502104026 | 32 | 5 | 0.0 | 0.0 | 0.00 | 0.00 | 0.00 | 93 | 1017.4 |
| 20260502103523 | 32 | 5 | 0.0 | 0.0 | 0.00 | 0.00 | 0.00 | 92 | 1017.4 |
| 20260502103021 | 32 | 242 | 0.0 | 0.0 | 0.00 | 0.00 | 0.00 | 92 | 1017.5 |
| 20260502102517 | 32 | 281 | 0.0 | 0.0 | 0.00 | 0.00 | 0.00 | 92 | 1017.7 |
| 20260502102014 | 32 | 243 | 0.0 | 0.0 | 0.00 | 0.00 | 0.00 | 92 | 1017.7 |
| 20260502101512 | 33 | 219 | 0.0 | 0.0 | 0.00 | 0.00 | 0.00 | 92 | 1017.5 |
| 20260502101010 | 32 | 315 | 0.0 | 1.0 | 0.00 | 0.00 | 0.00 | 93 | 1017.5 |
| 20260502100509 | 33 | 290 | 0.0 | 2.0 | 0.00 | 0.00 | 0.00 | 93 | 1017.3 |
| 20260502091443 | 33 | 259 | 0.0 | 0.0 | 0.00 | 0.00 | 0.00 | 94 | 1017.2 |
| 20260502090940 | 34 | 211 | 0.0 | 0.0 | 0.00 | 0.00 | 0.00 | 94 | 1017.2 |
| 20260502090437 | 34 | 231 | 0.0 | 0.0 | 0.00 | 0.00 | 0.00 | 94 | 1017.1 |
| 20260502071331 | 37 | 290 | 0.0 | 0.0 | 0.00 | 0.00 | 0.00 | 96 | 1017.1 |
| 20260502070830 | 37 | 229 | 0.0 | 0.0 | 0.00 | 0.00 | 0.00 | 96 | 1017.0 |
| 20260502070327 | 37 | 224 | 1.0 | 2.0 | 0.00 | 0.00 | 0.00 | 96 | 1017.0 |
| 20260502065826 | 37 | 259 | 0.0 | 0.0 | 0.00 | 0.00 | 0.00 | 96 | 1017.0 |
| 20260502065324 | 37 | 256 | 0.0 | 1.0 | 0.00 | 0.00 | 0.00 | 96 | 1017.0 |
| 20260502064821 | 37 | 245 | 0.0 | 0.0 | 0.00 | 0.00 | 0.00 | 97 | 1017.0 |
| 20260502064319 | 38 | 265 | 0.0 | 0.0 | 0.00 | 0.00 | 0.00 | 97 | 1017.0 |
| 20260502063816 | 38 | 300 | 1.0 | 2.0 | 0.00 | 0.00 | 0.00 | 97 | 1017.1 |
| 20260502063314 | 37 | 284 | 0.0 | 0.0 | 0.00 | 0.00 | 0.00 | 97 | 1017.2 |
| 20260502062811 | 37 | 276 | 0.0 | 1.0 | 0.00 | 0.00 | 0.00 | 97 | 1017.3 |
| 20260502062308 | 37 | 281 | 0.0 | 0.0 | 0.00 | 0.00 | 0.00 | 97 | 1017.4 |
| 20260502061807 | 37 | 333 | 0.0 | 0.0 | 0.00 | 0.00 | 0.00 | 97 | 1017.3 |
| 20260502061304 | 37 | 274 | 0.0 | 0.0 | 0.00 | 0.00 | 0.00 | 97 | 1017.4 |
| 20260502060800 | 37 | 308 | 0.0 | 0.0 | 0.00 | 0.00 | 0.00 | 97 | 1017.3 |
| 20260502060255 | 37 | 287 | 0.0 | 0.0 | 0.00 | 0.00 | 0.00 | 97 | 1017.4 |
| 20260502055753 | 37 | 258 | 0.0 | 0.0 | 0.00 | 0.00 | 0.00 | 97 | 1017.3 |
| 20260502055251 | 37 | 299 | 0.0 | 0.0 | 0.00 | 0.00 | 0.00 | 96 | 1017.4 |
| 20260502054750 | 38 | 299 | 0.0 | 0.0 | 0.00 | 0.00 | 0.00 | 96 | 1017.5 |
| 20260502054247 | 37 | 152 | 0.0 | 0.0 | 0.00 | 0.00 | 0.00 | 96 | 1017.5 |
| 20260502053744 | 37 | 152 | 0.0 | 0.0 | 0.00 | 0.00 | 0.00 | 96 | 1017.5 |
| 20260502053241 | 37 | 153 | 0.0 | 0.0 | 0.00 | 0.00 | 0.00 | 96 | 1017.5 |
| 20260502052739 | 37 | 152 | 0.0 | 0.0 | 0.00 | 0.00 | 0.00 | 96 | 1017.5 |
| 20260502052237 | 37 | 284 | 0.0 | 0.0 | 0.00 | 0.00 | 0.00 | 96 | 1017.8 |
| 20260502051735 | 37 | 210 | 0.0 | 0.0 | 0.00 | 0.00 | 0.00 | 96 | 1017.7 |
| 20260502051233 | 36 | 216 | 0.0 | 0.0 | 0.00 | 0.00 | 0.00 | 96 | 1017.5 |
| 20260502050729 | 36 | 216 | 0.0 | 0.0 | 0.00 | 0.00 | 0.00 | 95 | 1017.5 |
| 20260502050225 | 36 | 216 | 0.0 | 0.0 | 0.00 | 0.00 | 0.00 | 95 | 1017.7 |
| 20260502045723 | 36 | 216 | 0.0 | 0.0 | 0.00 | 0.00 | 0.00 | 95 | 1017.5 |
| 20260502045220 | 37 | 216 | 0.0 | 0.0 | 0.00 | 0.00 | 0.00 | 95 | 1017.7 |
| 20260502044716 | 37 | 216 | 0.0 | 0.0 | 0.00 | 0.00 | 0.00 | 95 | 1017.5 |
| 20260502044212 | 37 | 216 | 0.0 | 0.0 | 0.00 | 0.00 | 0.00 | 95 | 1017.8 |
| 20260502043710 | 37 | 216 | 0.0 | 0.0 | 0.00 | 0.00 | 0.00 | 94 | 1017.8 |
| 20260502043208 | 38 | 216 | 0.0 | 0.0 | 0.00 | 0.00 | 0.00 | 93 | 1017.8 |
| 20260502042707 | 38 | 216 | 0.0 | 0.0 | 0.00 | 0.00 | 0.00 | 92 | 1017.7 |
| 20260502042204 | 38 | 217 | 0.0 | 0.0 | 0.00 | 0.00 | 0.00 | 93 | 1017.8 |
| 20260502041702 | 39 | 217 | 0.0 | 0.0 | 0.00 | 0.00 | 0.00 | 92 | 1017.8 |
| 20260502041159 | 39 | 217 | 0.0 | 0.0 | 0.00 | 0.00 | 0.00 | 92 | 1017.7 |
| 20260502040655 | 39 | 217 | 0.0 | 0.0 | 0.00 | 0.00 | 0.00 | 92 | 1018.1 |
| 20260502040153 | 39 | 217 | 0.0 | 1.0 | 0.05 | 0.00 | 0.00 | 92 | 1018.1 |
| 20260502035649 | 39 | 217 | 0.0 | 1.0 | 0.05 | 0.24 | 0.24 | 92 | 1017.9 |
| 20260502035146 | 39 | 352 | 0.0 | 1.0 | 0.00 | 0.23 | 0.23 | 92 | 1018.0 |
| 20260502034643 | 39 | 359 | 0.0 | 1.0 | 0.00 | 0.23 | 0.23 | 92 | 1018.2 |
| 20260502034142 | 39 | 290 | 0.0 | 0.0 | 0.00 | 0.23 | 0.23 | 92 | 1018.1 |
| 20260502033639 | 39 | 242 | 1.0 | 2.0 | 0.00 | 0.23 | 0.23 | 92 | 1017.9 |
| 20260502033137 | 39 | 276 | 1.0 | 1.0 | 0.00 | 0.23 | 0.23 | 92 | 1017.9 |
| 20260502032632 | 38 | 236 | 0.0 | 1.0 | 0.00 | 0.23 | 0.23 | 94 | 1017.9 |
| 20260502032129 | 38 | 305 | 0.0 | 1.0 | 0.00 | 0.23 | 0.23 | 94 | 1018.0 |
| 20260502031627 | 38 | 265 | 0.0 | 0.0 | 0.00 | 0.23 | 0.23 | 94 | 1017.7 |
| 20260502031125 | 37 | 175 | 0.0 | 0.0 | 0.00 | 0.23 | 0.23 | 94 | 1017.8 |
| 20260502030624 | 38 | 175 | 0.0 | 0.0 | 0.00 | 0.23 | 0.23 | 94 | 1017.8 |
| 20260502030121 | 38 | 175 | 0.0 | 0.0 | 0.00 | 0.23 | 0.23 | 94 | 1017.5 |
| 20260502025618 | 37 | 175 | 0.0 | 0.0 | 0.00 | 0.23 | 0.23 | 94 | 1017.3 |
| 20260502025116 | 38 | 175 | 0.0 | 0.0 | 0.00 | 0.23 | 0.23 | 93 | 1017.7 |
| 20260502024614 | 38 | 175 | 0.0 | 0.0 | 0.00 | 0.23 | 0.23 | 92 | 1017.4 |
| 20260502024112 | 38 | 175 | 0.0 | 0.0 | 0.00 | 0.23 | 0.23 | 91 | 1017.4 |
| 20260502023609 | 39 | 175 | 0.0 | 0.0 | 0.00 | 0.23 | 0.23 | 89 | 1017.5 |
| 20260502023106 | 39 | 175 | 0.0 | 0.0 | 0.00 | 0.23 | 0.23 | 88 | 1017.5 |
| 20260502022603 | 39 | 175 | 0.0 | 0.0 | 0.00 | 0.23 | 0.23 | 88 | 1017.5 |
| 20260502022100 | 40 | 175 | 0.0 | 0.0 | 0.00 | 0.23 | 0.23 | 87 | 1017.5 |
| 20260502021557 | 40 | 175 | 0.0 | 0.0 | 0.00 | 0.23 | 0.23 | 86 | 1017.4 |
| 20260502021054 | 40 | 175 | 0.0 | 0.0 | 0.00 | 0.23 | 0.23 | 85 | 1017.8 |
| 20260502020552 | 41 | 175 | 0.0 | 0.0 | 0.00 | 0.23 | 0.23 | 85 | 1017.7 |
| 20260502020048 | 41 | 175 | 0.0 | 0.0 | 0.00 | 0.23 | 0.23 | 84 | 1017.5 |
| 20260502015546 | 41 | 191 | 0.0 | 0.0 | 0.00 | 0.23 | 0.23 | 86 | 1017.8 |
| 20260502015042 | 40 | 194 | 1.0 | 2.0 | 0.00 | 0.23 | 0.23 | 88 | 1017.8 |
| 20260502014540 | 40 | 353 | 0.0 | 0.0 | 0.00 | 0.23 | 0.23 | 90 | 1017.5 |
| 20260502014037 | 40 | 353 | 0.0 | 0.0 | 0.00 | 0.23 | 0.23 | 90 | 1017.4 |
| 20260502013532 | 40 | 353 | 0.0 | 0.0 | 0.00 | 0.23 | 0.23 | 90 | 1017.4 |
| 20260502013029 | 40 | 353 | 0.0 | 0.0 | 0.00 | 0.23 | 0.23 | 90 | 1017.3 |
| 20260502012526 | 40 | 353 | 0.0 | 0.0 | 0.00 | 0.23 | 0.23 | 90 | 1017.0 |
| 20260502012024 | 40 | 353 | 0.0 | 0.0 | 0.00 | 0.23 | 0.23 | 89 | 1017.1 |
| 20260502011520 | 40 | 353 | 0.0 | 0.0 | 0.00 | 0.23 | 0.23 | 88 | 1017.1 |
| 20260502011016 | 40 | 353 | 0.0 | 0.0 | 0.00 | 0.23 | 0.23 | 87 | 1016.9 |
| 20260502010514 | 41 | 353 | 0.0 | 0.0 | 0.00 | 0.23 | 0.23 | 86 | 1016.9 |
| 20260502010010 | 41 | 353 | 0.0 | 0.0 | 0.00 | 0.23 | 0.23 | 86 | 1017.0 |
| 20260502005508 | 41 | 353 | 0.0 | 0.0 | 0.00 | 0.23 | 0.23 | 86 | 1017.0 |
| 20260502005006 | 41 | 353 | 0.0 | 0.0 | 0.00 | 0.23 | 0.23 | 85 | 1017.1 |
| 20260502004501 | 41 | 353 | 0.0 | 0.0 | 0.00 | 0.23 | 0.23 | 85 | 1017.0 |
| 20260502003958 | 0 | 0.0 | 0.0 | 0.00 | 0.23 | 0.23 | 1017.0 | ||
| 20260502003455 | 0 | 0.0 | 0.0 | 0.00 | 0.23 | 0.23 | 1016.9 | ||
| 20260502002952 | 42 | 353 | 0.0 | 0.0 | 0.00 | 0.23 | 0.23 | 86 | 1016.9 |
| 20260502002449 | 42 | 353 | 0.0 | 0.0 | 0.00 | 0.23 | 0.23 | 86 | 1016.7 |
| 20260502001947 | 0 | 0.0 | 0.0 | 0.00 | 0.23 | 0.23 | 1016.8 | ||
| 20260502001444 | 0 | 0.0 | 0.0 | 0.00 | 0.23 | 0.23 | 1016.7 | ||
| 20260502000941 | 0 | 0.0 | 0.0 | 0.00 | 0.23 | 0.23 | 1016.6 | ||
| 20260502000440 | 0 | 0.0 | 0.0 | 0.00 | 0.23 | 0.23 | 1016.5 | ||
| 20260501235936 | 0 | 0.0 | 0.0 | 0.00 | 0.23 | 0.23 | 1016.3 | ||
| 20260501235431 | 42 | 276 | 0.0 | 0.0 | 0.00 | 0.23 | 0.23 | 83 | 1016.2 |
| 20260501234927 | 42 | 276 | 0.0 | 0.0 | 0.00 | 0.23 | 0.23 | 83 | 1016.2 |
| 20260501234424 | 0 | 0.0 | 0.0 | 0.00 | 0.23 | 0.23 | 1016.1 | ||
| 20260501233922 | 0 | 0.0 | 0.0 | 0.00 | 0.23 | 0.23 | 1016.2 | ||
| 20260501233420 | 0 | 0.0 | 0.0 | 0.00 | 0.23 | 0.23 | 1016.3 | ||
| 20260501232915 | 0 | 0.0 | 0.0 | 0.00 | 0.23 | 0.23 | 1016.2 | ||
| 20260501232412 | 0 | 0.0 | 0.0 | 0.00 | 0.23 | 0.23 | 1016.1 | ||
| 20260501231910 | 0 | 0.0 | 0.0 | 0.00 | 0.23 | 0.23 | 1015.9 | ||
| 20260501231408 | 0 | 0.0 | 0.0 | 0.00 | 0.23 | 0.23 | 1016.1 | ||
| 20260501230906 | 0 | 0.0 | 0.0 | 0.00 | 0.23 | 0.23 | 1016.0 | ||
| 20260501230405 | 0 | 0.0 | 0.0 | 0.00 | 0.23 | 0.23 | 1016.2 | ||
| 20260501225901 | 43 | 312 | 0.0 | 0.0 | 0.00 | 0.23 | 0.23 | 82 | 1016.2 |
| 20260501225359 | 43 | 312 | 0.0 | 0.0 | 0.00 | 0.23 | 0.23 | 82 | 1016.2 |
| 20260501224854 | 0 | 0.0 | 0.0 | 0.00 | 0.23 | 0.23 | 1016.3 | ||
| 20260501224352 | 0 | 0.0 | 0.0 | 0.00 | 0.23 | 0.23 | 1016.3 | ||
| 20260501223849 | 0 | 0.0 | 0.0 | 0.00 | 0.23 | 0.23 | 1016.5 | ||
| 20260501223345 | 0 | 0.0 | 0.0 | 0.00 | 0.23 | 0.23 | 1016.2 | ||
| 20260501222840 | 0 | 0.0 | 0.0 | 0.00 | 0.23 | 0.23 | 1016.3 | ||
| 20260501222338 | 44 | 288 | 2.0 | 2.0 | 0.00 | 0.23 | 0.23 | 80 | 1016.4 |
| 20260501221834 | 44 | 288 | 2.0 | 2.0 | 0.00 | 0.23 | 0.23 | 80 | 1016.1 |
| 20260501221331 | 45 | 12 | 1.0 | 2.0 | 0.00 | 0.23 | 0.23 | 82 | 1016.0 |
| 20260501220830 | 0 | 0.0 | 0.0 | 0.00 | 0.23 | 0.23 | 1015.9 | ||
| 20260501220327 | 0 | 0.0 | 0.0 | 0.00 | 0.23 | 0.23 | 1015.9 | ||
| 20260501215824 | 44 | 129 | 2.0 | 3.0 | 0.00 | 0.23 | 0.23 | 83 | 1016.0 |
| 20260501215320 | 44 | 129 | 2.0 | 3.0 | 0.00 | 0.23 | 0.23 | 83 | 1015.8 |
| 20260501214815 | 43 | 110 | 2.0 | 4.0 | 0.00 | 0.23 | 0.23 | 83 | 1015.8 |
| 20260501214311 | 43 | 297 | 2.0 | 2.0 | 0.00 | 0.23 | 0.23 | 81 | 1015.9 |
| 20260501213807 | 43 | 226 | 1.0 | 1.0 | 0.00 | 0.23 | 0.23 | 83 | 1016.0 |
| 20260501213303 | 43 | 307 | 0.0 | 0.0 | 0.00 | 0.23 | 0.23 | 87 | 1015.8 |
| 20260501212759 | 43 | 286 | 0.0 | 1.0 | 0.00 | 0.23 | 0.23 | 85 | 1015.8 |
| 20260501212256 | 43 | 328 | 0.0 | 1.0 | 0.00 | 0.23 | 0.23 | 86 | 1015.8 |
| 20260501211754 | 43 | 323 | 3.0 | 3.0 | 0.00 | 0.23 | 0.23 | 86 | 1015.7 |
| 20260501211250 | 0 | 0.0 | 0.0 | 0.00 | 0.23 | 0.23 | 1015.6 | ||
| 20260501210748 | 43 | 226 | 0.0 | 1.0 | 0.00 | 0.23 | 0.23 | 91 | 1015.7 |
| 20260501210244 | 42 | 219 | 0.0 | 0.0 | 0.00 | 0.23 | 0.23 | 91 | 1015.5 |
| 20260501205740 | 42 | 286 | 1.0 | 2.0 | 0.00 | 0.23 | 0.23 | 91 | 1015.4 |
| 20260501205237 | 42 | 267 | 0.0 | 1.0 | 0.00 | 0.23 | 0.23 | 91 | 1015.4 |
| 20260501204734 | 43 | 79 | 0.0 | 0.0 | 0.00 | 0.23 | 0.23 | 92 | 1015.4 |
| 20260501204231 | 42 | 137 | 0.0 | 1.0 | 0.00 | 0.23 | 0.23 | 93 | 1015.3 |
| 20260501203727 | 42 | 308 | 1.0 | 1.0 | 0.00 | 0.23 | 0.23 | 93 | 1015.4 |
| 20260501203225 | 42 | 221 | 0.0 | 4.0 | 0.00 | 0.23 | 0.23 | 92 | 1015.2 |
| 20260501202721 | 41 | 262 | 1.0 | 3.0 | 0.00 | 0.23 | 0.23 | 92 | 1015.3 |
| 20260501202219 | 42 | 258 | 1.0 | 1.0 | 0.00 | 0.23 | 0.23 | 93 | 1015.3 |
| 20260501201715 | 41 | 313 | 0.0 | 0.0 | 0.00 | 0.23 | 0.23 | 93 | 1015.2 |
| 20260501201212 | 42 | 327 | 1.0 | 2.0 | 0.00 | 0.23 | 0.23 | 93 | 1014.8 |
| 20260501200709 | 42 | 266 | 1.0 | 1.0 | 0.00 | 0.23 | 0.23 | 93 | 1014.8 |
| 20260501200206 | 0 | 0.0 | 0.0 | 0.00 | 0.23 | 0.23 | 1014.8 | ||
| 20260501195703 | 0 | 0.0 | 0.0 | 0.00 | 0.23 | 0.23 | 1014.8 | ||
| 20260501195159 | 42 | 301 | 1.0 | 2.0 | 0.00 | 0.23 | 0.23 | 94 | 1014.7 |
| 20260501194655 | 42 | 301 | 1.0 | 2.0 | 0.00 | 0.23 | 0.23 | 94 | 1014.7 |
| 20260501194150 | 42 | 247 | 0.0 | 0.0 | 0.00 | 0.23 | 0.23 | 94 | 1014.6 |
| 20260501193648 | 42 | 11 | 1.0 | 1.0 | 0.00 | 0.23 | 0.23 | 94 | 1014.7 |
| 20260501193147 | 0 | 0.0 | 0.0 | 0.00 | 0.23 | 0.23 | 1014.5 | ||
| 20260501192643 | 0 | 0.0 | 0.0 | 0.00 | 0.23 | 0.23 | 1014.5 | ||
| 20260501192141 | 0 | 0.0 | 0.0 | 0.00 | 0.23 | 0.23 | 1014.4 | ||
| 20260501191638 | 41 | 293 | 0.0 | 1.0 | 0.00 | 0.23 | 0.23 | 95 | 1014.5 |
| 20260501191135 | 41 | 293 | 0.0 | 1.0 | 0.07 | 0.23 | 0.23 | 95 | 1014.5 |
| 20260501190631 | 41 | 150 | 0.0 | 1.0 | 0.07 | 0.23 | 0.23 | 95 | 1014.4 |
| 20260501190126 | 0 | 0.0 | 0.0 | 0.00 | 0.00 | 0.00 | 1014.4 | ||
| 20260501185623 | 0 | 0.0 | 0.0 | 0.00 | 0.00 | 0.00 | 1014.4 | ||
| 20260501185118 | 0 | 0.0 | 0.0 | 0.00 | 0.22 | 0.22 | 1014.3 | ||
| 20260501184615 | 0 | 0.0 | 0.0 | 0.00 | 0.22 | 0.22 | 1014.2 | ||
| 20260501184109 | 0 | 0.0 | 0.0 | 0.00 | 0.22 | 0.22 | 1014.1 | ||
| 20260501183607 | 0 | 0.0 | 0.0 | 0.00 | 0.22 | 0.22 | 1014.0 | ||
| 20260501183103 | 0 | 0.0 | 0.0 | 0.00 | 0.22 | 0.22 | 1014.2 | ||
| 20260501182600 | 0 | 0.0 | 0.0 | 0.00 | 0.22 | 0.22 | 1014.0 | ||
| 20260501182057 | 0 | 0.0 | 0.0 | 0.00 | 0.22 | 0.22 | 1014.0 | ||
| 20260501181554 | 0 | 0.0 | 0.0 | 0.00 | 0.22 | 0.22 | 1013.9 | ||
| 20260501181050 | 0 | 0.0 | 0.0 | 0.00 | 0.22 | 0.22 | 1013.9 | ||
| 20260501180549 | 0 | 0.0 | 0.0 | 0.00 | 0.22 | 0.22 | 1013.8 | ||
| 20260501180044 | 41 | 274 | 1.0 | 1.0 | 0.00 | 0.22 | 0.22 | 95 | 1013.9 |
| 20260501175541 | 41 | 274 | 1.0 | 1.0 | 0.00 | 0.22 | 0.22 | 95 | 1013.6 |
| 20260501175038 | 41 | 195 | 0.0 | 1.0 | 0.00 | 0.22 | 0.22 | 95 | 1013.5 |
| 20260501174535 | 41 | 17 | 0.0 | 2.0 | 0.00 | 0.22 | 0.22 | 95 | 1013.6 |
| 20260501174033 | 42 | 262 | 0.0 | 0.0 | 0.00 | 0.22 | 0.22 | 95 | 1013.5 |
| 20260501173530 | 42 | 234 | 2.0 | 3.0 | 0.00 | 0.22 | 0.22 | 95 | 1013.6 |
| 20260501173027 | 42 | 293 | 1.0 | 1.0 | 0.00 | 0.22 | 0.22 | 95 | 1013.4 |
| 20260501172522 | 43 | 264 | 2.0 | 3.0 | 0.05 | 0.22 | 0.22 | 94 | 1013.3 |
| 20260501172018 | 44 | 15 | 0.0 | 1.0 | 0.05 | 0.22 | 0.22 | 95 | 1013.2 |
| 20260501171514 | 44 | 205 | 0.0 | 0.0 | 0.00 | 0.21 | 0.21 | 95 | 1013.1 |
| 20260501171011 | 44 | 260 | 0.0 | 0.0 | 0.00 | 0.21 | 0.21 | 95 | 1013.0 |
| 20260501170508 | 44 | 235 | 0.0 | 0.0 | 0.00 | 0.21 | 0.21 | 94 | 1013.2 |
| 20260501170005 | 44 | 235 | 0.0 | 0.0 | 0.07 | 0.21 | 0.21 | 94 | 1013.1 |
| 20260501165503 | 44 | 235 | 0.0 | 1.0 | 0.07 | 0.21 | 0.21 | 94 | 1013.1 |
| 20260501165000 | 44 | 290 | 0.0 | 1.0 | 0.05 | 0.20 | 0.20 | 94 | 1013.1 |
| 20260501164458 | 44 | 308 | 0.0 | 0.0 | 0.12 | 0.20 | 0.20 | 94 | 1013.2 |
| 20260501163954 | 44 | 254 | 0.0 | 0.0 | 0.07 | 0.19 | 0.19 | 94 | 1013.3 |
| 20260501163450 | 44 | 265 | 0.0 | 1.0 | 0.00 | 0.18 | 0.18 | 93 | 1013.2 |
| 20260501162947 | 44 | 234 | 0.0 | 1.0 | 0.00 | 0.18 | 0.18 | 93 | 1013.1 |
| 20260501162443 | 44 | 284 | 1.0 | 1.0 | 0.05 | 0.18 | 0.18 | 93 | 1013.1 |
| 20260501161941 | 44 | 147 | 0.0 | 1.0 | 0.05 | 0.18 | 0.18 | 93 | 1013.2 |
| 20260501161437 | 44 | 278 | 0.0 | 1.0 | 0.00 | 0.17 | 0.17 | 94 | 1013.0 |
| 20260501160934 | 44 | 295 | 0.0 | 1.0 | 0.07 | 0.17 | 0.17 | 93 | 1013.1 |
| 20260501160431 | 44 | 295 | 0.0 | 2.0 | 0.07 | 0.17 | 0.17 | 93 | 1013.1 |
| 20260501155928 | 44 | 164 | 2.0 | 3.0 | 0.05 | 0.16 | 0.16 | 92 | 1013.0 |
| 20260501155425 | 44 | 204 | 0.0 | 0.0 | 0.05 | 0.16 | 0.16 | 93 | 1013.1 |
| 20260501154922 | 0 | 0.0 | 0.0 | 0.00 | 0.15 | 0.15 | 1013.1 | ||
| 20260501154419 | 43 | 244 | 2.0 | 2.0 | 0.00 | 0.15 | 0.15 | 93 | 1013.0 |
| 20260501153916 | 43 | 244 | 2.0 | 3.0 | 0.00 | 0.15 | 0.15 | 93 | 1013.1 |
| 20260501153414 | 43 | 280 | 2.0 | 3.0 | 0.00 | 0.15 | 0.15 | 94 | 1013.1 |
| 20260501152909 | 43 | 261 | 0.0 | 0.0 | 0.00 | 0.15 | 0.15 | 93 | 1013.0 |
| 20260501152407 | 43 | 225 | 1.0 | 1.0 | 0.00 | 0.15 | 0.15 | 94 | 1013.2 |
| 20260501151904 | 43 | 256 | 2.0 | 2.0 | 0.00 | 0.15 | 0.15 | 93 | 1013.1 |
| 20260501151401 | 43 | 251 | 1.0 | 2.0 | 0.07 | 0.15 | 0.15 | 93 | 1013.2 |
| 20260501150857 | 43 | 139 | 0.0 | 2.0 | 0.07 | 0.15 | 0.15 | 93 | 1013.2 |
| 20260501150353 | 43 | 247 | 2.0 | 2.0 | 0.00 | 0.14 | 0.14 | 93 | 1013.3 |
| 20260501145850 | 43 | 219 | 0.0 | 2.0 | 0.00 | 0.14 | 0.14 | 93 | 1013.2 |
| 20260501145346 | 42 | 239 | 2.0 | 6.0 | 0.07 | 0.14 | 0.14 | 92 | 1013.4 |
| 20260501144844 | 42 | 277 | 3.0 | 3.0 | 0.12 | 0.14 | 0.14 | 93 | 1013.6 |
| 20260501144339 | 42 | 221 | 2.0 | 4.0 | 0.12 | 0.13 | 0.13 | 92 | 1013.6 |
| 20260501143836 | 43 | 248 | 2.0 | 2.0 | 0.12 | 0.12 | 0.12 | 93 | 1013.5 |
| 20260501143332 | 43 | 239 | 0.0 | 1.0 | 0.05 | 0.11 | 0.11 | 93 | 1013.4 |
| 20260501142829 | 43 | 185 | 0.0 | 1.0 | 0.07 | 0.10 | 0.10 | 92 | 1013.4 |